Simultaneous Nadir Overpasses (SNOs) Predictions

Prediction of SNOs between METOP-A and NOAA-19 Satellite Orbit:

Table of predicted SNOs for the next 14.0 days since TLE Epoch: 11/21/2020
Index Date (METOP-A) Time (METOP-A) Lat,Lon (METOP-A) SZA (METOP-A ) Date (NOAA-19) Time (NOAA-19) Lat,Lon (NOAA-19) SZA (NOAA-19 ) Distance(km) Time Diff (sec)
1 11/26/2020 08:54:25 -80.78,-120.58 77.88 11/26/2020 08:53:19 -80.78,-120.67 77.90 1.64 66
2 11/26/2020 09:45:06 80.77, 46.63 102.12 11/26/2020 09:44:14 80.78, 46.61 102.12 0.74 52
3 11/26/2020 10:35:47 -80.77,-146.06 77.88 11/26/2020 10:35:19 -80.77,-146.00 77.88 1.24 28
4 11/26/2020 11:26:28 80.76, 21.14 102.12 11/26/2020 11:26:14 80.77, 21.29 102.13 2.83 14
5 11/26/2020 12:17:08 -80.78,-171.20 77.85 11/26/2020 12:17:19 -80.77,-171.32 77.86 2.60 11
6 11/26/2020 13:07:49 80.77, -4.00 102.15 11/26/2020 13:08:14 80.77, -4.04 102.15 0.97 25
7 11/26/2020 13:58:30 -80.77, 163.32 77.85 11/26/2020 13:59:19 -80.76, 163.36 77.85 1.14 49
